SXB826 EDDK-LIMC

Flight info

Callsign SXB826
Flight time 1h 49m
Altitude 33000
Route KUMIK1R KUMIK Y854 BOMBI/N0483F320 DCT GIGET DCT ABUKA DCT KRH DCT NATOR/N0484F330 DCT DITON DCT BASGO/N0490F290 Z424 AKASU/N0420F190 Z424 RIXUV
Aircraft B77L/H-SDE1E2E3FGHIJ2J3J4J5M1RWXY/LB1D1

Departure

Time 2026-05-05 20:01
Airport Cologne Bonn Airport (EDDK)

Arrival

Time 2026-05-05 21:51
Airport Milan Malpensa International Airport (LIMC)
Time Latitude Longitude Altitude Speed Heading
2026-05-05 19:43 50.86631 7.13473 253 ft 0 kts 334°
2026-05-05 19:51 50.86624 7.13478 253 ft 4 kts 336°
2026-05-05 19:51 50.86599 7.13493 253 ft 4 kts 345°
2026-05-05 19:52 50.86573 7.13501 253 ft 4 kts 358°
2026-05-05 19:52 50.86547 7.13496 253 ft 4 kts 33°
2026-05-05 19:52 50.86538 7.13483 253 ft 2 kts 64°
2026-05-05 19:55 50.86541 7.13495 253 ft 7 kts 64°
2026-05-05 19:55 50.86588 7.13651 253 ft 15 kts 61°
2026-05-05 19:56 50.86633 7.13800 256 ft 15 kts 65°
2026-05-05 19:56 50.86679 7.13950 259 ft 15 kts 64°
2026-05-05 19:56 50.86720 7.14090 260 ft 15 kts 67°
2026-05-05 19:56 50.86724 7.14192 262 ft 9 kts 147°
2026-05-05 19:57 50.86660 7.14244 265 ft 14 kts 141°
2026-05-05 19:57 50.86613 7.14313 266 ft 14 kts 138°
2026-05-05 19:57 50.86518 7.14452 269 ft 14 kts 137°
2026-05-05 19:57 50.86410 7.14604 276 ft 27 kts 138°
2026-05-05 19:58 50.86274 7.14801 284 ft 27 kts 137°
2026-05-05 19:58 50.86137 7.15000 295 ft 27 kts 137°
2026-05-05 19:58 50.86001 7.15199 300 ft 27 kts 137°
2026-05-05 19:58 50.85867 7.15395 305 ft 27 kts 137°
2026-05-05 19:59 50.85728 7.15595 309 ft 27 kts 136°
2026-05-05 19:59 50.85594 7.15791 310 ft 27 kts 140°
2026-05-05 19:59 50.85457 7.15987 315 ft 27 kts 140°
2026-05-05 19:59 50.85341 7.16210 314 ft 27 kts 109°
2026-05-05 20:00 50.85379 7.16446 314 ft 21 kts 45°
2026-05-05 20:00 50.85508 7.16536 313 ft 18 kts 20°
2026-05-05 20:00 50.85550 7.16518 312 ft 0 kts 317°
2026-05-05 20:00 50.85595 7.16454 314 ft 37 kts 317°
2026-05-05 20:01 50.86020 7.15845 306 ft 127 kts 318°
2026-05-05 20:01 50.86853 7.14624 420 ft 187 kts 320°
2026-05-05 20:01 50.87893 7.13262 1126 ft 203 kts 320°
2026-05-05 20:01 50.89002 7.11727 1829 ft 216 kts 324°
2026-05-05 20:02 50.90431 7.10816 2138 ft 238 kts
2026-05-05 20:02 50.92029 7.11623 2643 ft 248 kts 37°
2026-05-05 20:02 50.93323 7.13480 3253 ft 255 kts 52°
2026-05-05 20:02 50.94204 7.15935 3964 ft 259 kts 66°
2026-05-05 20:03 50.94990 7.18551 4802 ft 265 kts 64°
2026-05-05 20:03 50.95811 7.21185 5672 ft 269 kts 64°
2026-05-05 20:03 50.96650 7.23857 6521 ft 273 kts 63°
2026-05-05 20:03 50.97503 7.26564 7331 ft 276 kts 63°
2026-05-05 20:04 50.98371 7.29313 8145 ft 280 kts 63°
2026-05-05 20:04 50.99250 7.32099 8947 ft 285 kts 64°
2026-05-05 20:04 51.00144 7.34936 9760 ft 289 kts 64°
2026-05-05 20:04 51.01057 7.37835 10362 ft 301 kts 64°
2026-05-05 20:05 51.01861 7.41014 10510 ft 322 kts 81°
2026-05-05 20:05 51.01736 7.44654 10703 ft 343 kts 105°
2026-05-05 20:05 51.00991 7.48368 10924 ft 364 kts 109°
2026-05-05 20:05 51.00184 7.52264 11580 ft 375 kts 109°
2026-05-05 20:06 50.99373 7.56240 12453 ft 382 kts 108°
2026-05-05 20:06 50.98558 7.60288 13434 ft 386 kts 108°
2026-05-05 20:06 50.97747 7.64369 14287 ft 390 kts 108°
2026-05-05 20:06 50.96929 7.68510 15132 ft 395 kts 108°
2026-05-05 20:07 50.96116 7.72635 15951 ft 399 kts 108°
2026-05-05 20:07 50.95280 7.76862 16771 ft 404 kts 108°
2026-05-05 20:07 50.94422 7.81138 17594 ft 409 kts 110°
2026-05-05 20:07 50.93199 7.85200 18228 ft 412 kts 123°
2026-05-05 20:08 50.91539 7.88934 18926 ft 416 kts 127°
2026-05-05 20:08 50.89858 7.92673 19708 ft 418 kts 126°
2026-05-05 20:08 50.88215 7.96484 20485 ft 420 kts 125°
2026-05-05 20:08 50.86589 8.00362 21237 ft 424 kts 124°
2026-05-05 20:09 50.84961 8.04267 21953 ft 426 kts 124°
2026-05-05 20:09 50.83126 8.07951 22491 ft 430 kts 137°
2026-05-05 20:09 50.80682 8.10653 23017 ft 430 kts 149°
2026-05-05 20:09 50.78084 8.13093 23511 ft 437 kts 149°
2026-05-05 20:10 50.75486 8.15618 24148 ft 438 kts 148°
2026-05-05 20:10 50.72903 8.18180 24840 ft 439 kts 147°
2026-05-05 20:10 50.70325 8.20761 25472 ft 440 kts 147°
2026-05-05 20:10 50.67732 8.23366 26046 ft 444 kts 147°
2026-05-05 20:11 50.65149 8.25962 26583 ft 447 kts 147°
2026-05-05 20:11 50.62483 8.28636 27172 ft 450 kts 147°
2026-05-05 20:11 50.59838 8.31285 27739 ft 452 kts 147°
2026-05-05 20:11 50.57172 8.33950 28308 ft 455 kts 147°
2026-05-05 20:12 50.54526 8.36590 28818 ft 457 kts 147°
2026-05-05 20:12 50.52710 8.38400 29155 ft 459 kts 146°
2026-05-05 20:12 50.49120 8.41974 29771 ft 463 kts 146°
2026-05-05 20:12 50.47281 8.43801 30082 ft 463 kts 147°
2026-05-05 20:13 50.43693 8.47363 30868 ft 458 kts 147°
2026-05-05 20:13 50.41877 8.49163 31300 ft 455 kts 147°
2026-05-05 20:13 50.39207 8.51805 31913 ft 452 kts 147°
2026-05-05 20:13 50.36520 8.54337 32454 ft 450 kts 150°
2026-05-05 20:14 50.33753 8.56660 32846 ft 452 kts 152°
2026-05-05 20:14 50.28136 8.61321 32811 ft 458 kts 151°
2026-05-05 20:15 50.22580 8.65949 32811 ft 452 kts 151°
2026-05-05 20:15 50.17007 8.70601 32824 ft 451 kts 151°
2026-05-05 20:16 50.11408 8.74875 32817 ft 452 kts 160°
2026-05-05 20:16 50.05217 8.76656 32836 ft 456 kts 174°
2026-05-05 20:17 49.98828 8.76305 32814 ft 461 kts 183°
2026-05-05 20:17 49.92421 8.75425 32828 ft 463 kts 182°
2026-05-05 20:18 49.85984 8.74606 32827 ft 464 kts 182°
2026-05-05 20:18 49.79538 8.73831 32815 ft 465 kts 182°
2026-05-05 20:19 49.73089 8.73059 32814 ft 465 kts 182°
2026-05-05 20:19 49.66665 8.72056 32819 ft 465 kts 186°
2026-05-05 20:20 49.60267 8.70716 32827 ft 464 kts 186°
2026-05-05 20:20 49.53861 8.69391 32824 ft 463 kts 186°
2026-05-05 20:21 49.47476 8.68096 32833 ft 462 kts 186°
2026-05-05 20:21 49.41129 8.66813 32830 ft 462 kts 187°
2026-05-05 20:22 49.34760 8.65523 32831 ft 461 kts 187°
2026-05-05 20:22 49.28398 8.64237 32825 ft 461 kts 187°
2026-05-05 20:23 49.22032 8.62954 32831 ft 462 kts 187°
2026-05-05 20:23 49.18835 8.62312 33030 ft 465 kts 187°
2026-05-05 20:23 49.15619 8.61667 33513 ft 463 kts 187°
2026-05-05 20:23 49.12434 8.61027 34022 ft 460 kts 187°
2026-05-05 20:24 49.09265 8.60392 34463 ft 458 kts 187°
2026-05-05 20:24 49.06099 8.59758 34806 ft 458 kts 187°
2026-05-05 20:24 49.02919 8.59122 34810 ft 463 kts 187°
2026-05-05 20:25 48.96559 8.57585 34831 ft 460 kts 192°
2026-05-05 20:25 48.90314 8.55526 34838 ft 458 kts 192°
2026-05-05 20:26 48.84101 8.53486 34847 ft 457 kts 192°
2026-05-05 20:26 48.77912 8.51481 34846 ft 457 kts 192°
2026-05-05 20:27 48.71690 8.49481 34860 ft 457 kts 192°
2026-05-05 20:27 48.65452 8.47479 34839 ft 458 kts 192°
2026-05-05 20:28 48.59204 8.45480 34855 ft 459 kts 192°
2026-05-05 20:28 48.52946 8.43482 34854 ft 459 kts 192°
2026-05-05 20:29 48.46688 8.41489 34852 ft 460 kts 192°
2026-05-05 20:29 48.40428 8.39501 34863 ft 460 kts 192°
2026-05-05 20:30 48.34166 8.37516 34854 ft 460 kts 192°
2026-05-05 20:30 48.27904 8.35536 34869 ft 460 kts 192°
2026-05-05 20:31 48.21647 8.33562 34874 ft 459 kts 192°
2026-05-05 20:31 48.15361 8.32123 34886 ft 460 kts 184°
2026-05-05 20:32 48.08927 8.32152 34881 ft 460 kts 180°
2026-05-05 20:32 48.02558 8.32294 34892 ft 461 kts 181°
2026-05-05 20:33 47.96153 8.32397 34890 ft 461 kts 181°
2026-05-05 20:33 47.89737 8.32486 34899 ft 461 kts 181°
2026-05-05 20:34 47.83312 8.32573 34889 ft 461 kts 181°
2026-05-05 20:34 47.76904 8.32661 34896 ft 460 kts 181°
2026-05-05 20:35 47.70502 8.32749 34899 ft 460 kts 182°
2026-05-05 20:35 47.64114 8.32837 34905 ft 458 kts 182°
2026-05-05 20:36 47.57741 8.32925 34897 ft 457 kts 182°
2026-05-05 20:36 47.51405 8.33012 34905 ft 456 kts 182°
2026-05-05 20:37 47.45073 8.33098 34913 ft 454 kts 182°
2026-05-05 20:37 47.38765 8.33184 34899 ft 453 kts 182°
2026-05-05 20:38 47.32472 8.33270 34902 ft 451 kts 182°
2026-05-05 20:38 47.26190 8.33792 34909 ft 452 kts 178°
2026-05-05 20:39 47.19930 8.34687 34918 ft 452 kts 178°
2026-05-05 20:39 47.13576 8.35579 34920 ft 453 kts 178°
2026-05-05 20:40 47.07294 8.36442 34905 ft 453 kts 179°
2026-05-05 20:40 47.01008 8.37299 34938 ft 453 kts 179°
2026-05-05 20:41 46.94731 8.38152 34939 ft 453 kts 179°
2026-05-05 20:41 46.88480 8.39003 34937 ft 454 kts 179°
2026-05-05 20:42 46.82208 8.39854 34914 ft 442 kts 179°
2026-05-05 20:42 46.79154 8.40270 34330 ft 440 kts 180°
2026-05-05 20:42 46.76112 8.40681 33652 ft 438 kts 180°
2026-05-05 20:42 46.73070 8.41087 32804 ft 440 kts 180°
2026-05-05 20:43 46.70023 8.41499 31938 ft 440 kts 179°
2026-05-05 20:43 46.66972 8.41909 31063 ft 440 kts 179°
2026-05-05 20:43 46.63960 8.42308 30336 ft 438 kts 179°
2026-05-05 20:43 46.60945 8.42710 29647 ft 432 kts 179°
2026-05-05 20:44 46.57989 8.43109 29011 ft 427 kts 179°
2026-05-05 20:44 46.55021 8.43508 28367 ft 422 kts 179°
2026-05-05 20:44 46.52110 8.43899 27775 ft 418 kts 179°
2026-05-05 20:44 46.49225 8.44285 27178 ft 415 kts 179°
2026-05-05 20:45 46.43527 8.45046 26018 ft 407 kts 179°
2026-05-05 20:45 46.40710 8.45419 25458 ft 405 kts 178°
2026-05-05 20:45 46.37913 8.45792 25127 ft 402 kts 179°
2026-05-05 20:46 46.35111 8.46164 24978 ft 408 kts 179°
2026-05-05 20:46 46.32228 8.46547 24983 ft 413 kts 179°
2026-05-05 20:46 46.29392 8.46920 24987 ft 416 kts 179°
2026-05-05 20:46 46.26504 8.47304 24982 ft 417 kts 178°
2026-05-05 20:47 46.23613 8.47723 24978 ft 416 kts 178°
2026-05-05 20:47 46.21669 8.48017 24990 ft 415 kts 177°
2026-05-05 20:47 46.18804 8.48449 24968 ft 414 kts 178°
2026-05-05 20:47 46.15945 8.48878 25011 ft 413 kts 178°
2026-05-05 20:48 46.13078 8.49346 24997 ft 416 kts 175°
2026-05-05 20:48 46.09320 8.50546 24992 ft 420 kts 168°
2026-05-05 20:48 46.07438 8.51429 24997 ft 422 kts 164°
2026-05-05 20:48 46.04688 8.52951 25003 ft 423 kts 163°
2026-05-05 20:49 46.01902 8.54483 24977 ft 424 kts 163°
2026-05-05 20:49 45.99147 8.55979 24996 ft 423 kts 164°
2026-05-05 20:49 45.96390 8.57463 24998 ft 423 kts 163°
2026-05-05 20:49 45.93664 8.58931 24976 ft 409 kts 164°
2026-05-05 20:50 45.91107 8.60312 24941 ft 375 kts 164°
2026-05-05 20:50 45.88744 8.61464 24963 ft 342 kts 174°
2026-05-05 20:50 45.86461 8.61668 24988 ft 319 kts 188°
2026-05-05 20:50 45.84343 8.61096 24965 ft 300 kts 202°
2026-05-05 20:51 45.82674 8.59525 24987 ft 284 kts 230°
2026-05-05 20:51 45.81639 8.57063 25001 ft 293 kts 241°
2026-05-05 20:51 45.80805 8.54392 24995 ft 293 kts 244°
2026-05-05 20:51 45.80286 8.51566 24985 ft 298 kts 263°
2026-05-05 20:52 45.80678 8.48612 25000 ft 310 kts 287°
2026-05-05 20:52 45.81815 8.45918 25002 ft 323 kts 301°
2026-05-05 20:52 45.83352 8.43505 25004 ft 334 kts 311°
2026-05-05 20:52 45.85369 8.41723 24997 ft 351 kts 333°
2026-05-05 20:53 45.87685 8.40553 24999 ft 355 kts 335°
2026-05-05 20:53 45.90012 8.39358 24999 ft 355 kts 334°
2026-05-05 20:53 45.92325 8.38118 25008 ft 355 kts 334°
2026-05-05 20:53 45.94725 8.37273 24954 ft 362 kts 355°
2026-05-05 20:54 45.97213 8.37784 24988 ft 366 kts 18°
2026-05-05 20:54 45.99415 8.39562 25048 ft 366 kts 42°
2026-05-05 20:54 46.01080 8.42336 24990 ft 367 kts 65°
2026-05-05 20:54 46.01928 8.45713 24996 ft 355 kts 88°
2026-05-05 20:55 46.01880 8.49208 24999 ft 348 kts 110°
2026-05-05 20:55 46.01014 8.52377 25010 ft 336 kts 130°
2026-05-05 20:55 45.99555 8.54910 25011 ft 325 kts 144°
2026-05-05 20:55 45.97754 8.56734 24990 ft 311 kts 161°
2026-05-05 20:56 45.95756 8.57888 24727 ft 310 kts 166°
2026-05-05 20:56 45.93726 8.58928 24502 ft 309 kts 166°
2026-05-05 20:56 45.91710 8.59987 24257 ft 307 kts 165°
2026-05-05 20:56 45.89718 8.61053 24023 ft 303 kts 167°
2026-05-05 20:57 45.87698 8.61541 23772 ft 290 kts 187°
2026-05-05 20:57 45.85746 8.61005 23543 ft 284 kts 201°
2026-05-05 20:57 45.83987 8.59764 23283 ft 281 kts 214°
2026-05-05 20:57 45.82521 8.57960 23136 ft 277 kts 227°
2026-05-05 20:58 45.81446 8.55648 23067 ft 284 kts 242°
2026-05-05 20:58 45.80864 8.52890 23024 ft 296 kts 258°
2026-05-05 20:58 45.80909 8.49884 23005 ft 309 kts 275°
2026-05-05 20:58 45.81658 8.46952 23010 ft 321 kts 294°
2026-05-05 20:59 45.83050 8.44396 23016 ft 331 kts 309°
2026-05-05 20:59 45.84976 8.42520 22989 ft 341 kts 332°
2026-05-05 20:59 45.87213 8.41345 23013 ft 344 kts 335°
2026-05-05 20:59 45.89464 8.40166 22991 ft 345 kts 334°
2026-05-05 21:00 45.91712 8.38951 23008 ft 345 kts 334°
2026-05-05 21:00 45.94006 8.37899 22975 ft 350 kts 349°
2026-05-05 21:00 45.96442 8.38041 23024 ft 355 kts 13°
2026-05-05 21:00 45.98709 8.39453 23013 ft 357 kts 36°
2026-05-05 21:01 46.00490 8.41909 23023 ft 357 kts 58°
2026-05-05 21:01 46.01558 8.45090 22988 ft 352 kts 82°
2026-05-05 21:01 46.01756 8.48536 23000 ft 342 kts 103°
2026-05-05 21:01 46.01103 8.51774 23029 ft 329 kts 124°
2026-05-05 21:02 45.99803 8.54399 23032 ft 319 kts 140°
2026-05-05 21:02 45.98130 8.56411 22983 ft 307 kts 156°
2026-05-05 21:02 45.96206 8.57626 22857 ft 298 kts 165°
2026-05-05 21:02 45.94280 8.58627 22581 ft 295 kts 165°
2026-05-05 21:03 45.92371 8.59631 22305 ft 290 kts 165°
2026-05-05 21:03 45.90501 8.60638 22154 ft 284 kts 165°
2026-05-05 21:03 45.88647 8.61424 22044 ft 275 kts 180°
2026-05-05 21:03 45.86756 8.61227 22018 ft 274 kts 196°
2026-05-05 21:04 45.84962 8.60274 22010 ft 278 kts 209°
2026-05-05 21:04 45.83390 8.58673 21999 ft 278 kts 223°
2026-05-05 21:04 45.82212 8.56483 21987 ft 279 kts 239°
2026-05-05 21:04 45.81583 8.53841 21991 ft 284 kts 257°
2026-05-05 21:05 45.81605 8.50990 21999 ft 292 kts 275°
2026-05-05 21:05 45.82369 8.48174 21949 ft 320 kts 296°
2026-05-05 21:05 45.83886 8.45623 21340 ft 361 kts 317°
2026-05-05 21:05 45.86170 8.43758 21247 ft 397 kts 335°
2026-05-05 21:06 45.88974 8.42856 21094 ft 430 kts 353°
2026-05-05 21:06 45.91952 8.43113 21004 ft 429 kts 11°
2026-05-05 21:06 45.94724 8.44625 20999 ft 427 kts 31°
2026-05-05 21:06 45.96970 8.47389 20995 ft 424 kts 54°
2026-05-05 21:07 45.98326 8.51091 20986 ft 417 kts 77°
2026-05-05 21:07 45.98634 8.55158 20668 ft 404 kts 101°
2026-05-05 21:07 45.97844 8.58985 20181 ft 389 kts 125°
2026-05-05 21:07 45.96129 8.61857 19673 ft 373 kts 149°
2026-05-05 21:08 45.93826 8.63367 19096 ft 361 kts 173°
2026-05-05 21:08 45.91385 8.63729 18712 ft 348 kts 179°
2026-05-05 21:08 45.89000 8.64251 18447 ft 345 kts 169°
2026-05-05 21:08 45.86774 8.65425 18384 ft 336 kts 159°
2026-05-05 21:09 45.84780 8.67047 18281 ft 326 kts 152°
2026-05-05 21:09 45.82960 8.68904 18193 ft 316 kts 148°
2026-05-05 21:09 45.81260 8.70817 18068 ft 305 kts 147°
2026-05-05 21:09 45.79632 8.72695 17881 ft 296 kts 147°
2026-05-05 21:10 45.78044 8.74527 17615 ft 291 kts 147°
2026-05-05 21:10 45.76454 8.76294 17210 ft 288 kts 151°
2026-05-05 21:10 45.74756 8.77777 16765 ft 285 kts 156°
2026-05-05 21:10 45.73008 8.79112 16375 ft 284 kts 157°
2026-05-05 21:11 45.71274 8.80413 16115 ft 278 kts 157°
2026-05-05 21:11 45.69594 8.81683 15944 ft 269 kts 157°
2026-05-05 21:11 45.67969 8.82921 15748 ft 260 kts 157°
2026-05-05 21:11 45.66412 8.84112 15477 ft 256 kts 157°
2026-05-05 21:12 45.64827 8.85326 15082 ft 255 kts 157°
2026-05-05 21:12 45.63262 8.86523 14668 ft 255 kts 156°
2026-05-05 21:12 45.61704 8.87722 14293 ft 254 kts 153°
2026-05-05 21:12 45.60398 8.89413 13778 ft 262 kts 125°
2026-05-05 21:13 45.59759 8.91874 13294 ft 268 kts 99°
2026-05-05 21:13 45.59898 8.94512 12903 ft 269 kts 73°
2026-05-05 21:13 45.60794 8.96800 12476 ft 269 kts 46°
2026-05-05 21:13 45.62320 8.98270 12084 ft 264 kts 16°
2026-05-05 21:14 45.64139 8.98404 12009 ft 265 kts 340°
2026-05-05 21:14 45.65662 8.97044 11991 ft 256 kts 305°
2026-05-05 21:14 45.66654 8.94986 12008 ft 252 kts 304°
2026-05-05 21:14 45.67855 8.93127 11991 ft 257 kts 318°
2026-05-05 21:15 45.69362 8.91739 11982 ft 260 kts 333°
2026-05-05 21:15 45.71089 8.90968 11978 ft 262 kts 349°
2026-05-05 21:15 45.72921 8.90848 11987 ft 262 kts 359°
2026-05-05 21:15 45.74656 8.90428 11972 ft 252 kts 327°
2026-05-05 21:16 45.75899 8.88711 12004 ft 251 kts 297°
2026-05-05 21:16 45.76598 8.86420 11997 ft 251 kts 282°
2026-05-05 21:16 45.76754 8.83997 11980 ft 241 kts 259°
2026-05-05 21:16 45.76186 8.81799 11990 ft 235 kts 233°
2026-05-05 21:17 45.74998 8.80237 11993 ft 235 kts 208°
2026-05-05 21:17 45.73438 8.79568 12000 ft 237 kts 186°
2026-05-05 21:17 45.71783 8.79747 11983 ft 242 kts 162°
2026-05-05 21:17 45.70283 8.80852 12032 ft 244 kts 154°
2026-05-05 21:18 45.68780 8.82065 11996 ft 251 kts 154°
2026-05-05 21:18 45.67245 8.83295 12002 ft 254 kts 154°
2026-05-05 21:18 45.65698 8.84532 11994 ft 254 kts 154°
2026-05-05 21:18 45.64161 8.85758 11991 ft 252 kts 154°
2026-05-05 21:19 45.62632 8.86974 11985 ft 251 kts 154°
2026-05-05 21:19 45.61146 8.88263 11972 ft 249 kts 142°
2026-05-05 21:19 45.60402 8.89506 11995 ft 254 kts 123°
2026-05-05 21:19 45.59834 8.91950 12000 ft 268 kts 97°
2026-05-05 21:20 45.60058 8.94606 12001 ft 273 kts 70°
2026-05-05 21:20 45.61111 8.96841 11982 ft 273 kts 39°
2026-05-05 21:20 45.62773 8.98054 11987 ft 268 kts
2026-05-05 21:20 45.64593 8.97980 11995 ft 261 kts 341°
2026-05-05 21:21 45.66231 8.96949 12005 ft 257 kts 328°
2026-05-05 21:21 45.67797 8.95692 11998 ft 259 kts 328°
2026-05-05 21:21 45.69383 8.94415 11990 ft 262 kts 328°
2026-05-05 21:21 45.70978 8.93135 11995 ft 264 kts 328°
2026-05-05 21:22 45.72589 8.91848 12005 ft 266 kts 328°
2026-05-05 21:22 45.74210 8.90557 12001 ft 267 kts 328°
2026-05-05 21:22 45.75711 8.89068 11971 ft 258 kts 307°
2026-05-05 21:22 45.76531 8.86879 11997 ft 247 kts 279°
2026-05-05 21:23 45.76566 8.84471 11995 ft 241 kts 255°
2026-05-05 21:23 45.75936 8.82273 11878 ft 238 kts 233°
2026-05-05 21:23 45.74751 8.80665 11609 ft 235 kts 210°
2026-05-05 21:23 45.73221 8.79925 11202 ft 234 kts 188°
2026-05-05 21:24 45.71580 8.79999 10887 ft 232 kts 167°
2026-05-05 21:24 45.70092 8.80907 10653 ft 235 kts 154°
2026-05-05 21:24 45.68657 8.82080 10417 ft 240 kts 153°
2026-05-05 21:24 45.67203 8.83285 10218 ft 242 kts 153°
2026-05-05 21:25 45.65738 8.84478 9962 ft 242 kts 153°
2026-05-05 21:25 45.64277 8.85654 9694 ft 241 kts 153°
2026-05-05 21:25 45.62820 8.86818 9430 ft 239 kts 154°
2026-05-05 21:25 45.61390 8.88003 9192 ft 234 kts 145°
2026-05-05 21:26 45.60400 8.89771 9084 ft 230 kts 114°
2026-05-05 21:26 45.60130 8.92063 9052 ft 243 kts 87°
2026-05-05 21:26 45.60615 8.94422 9001 ft 252 kts 59°
2026-05-05 21:26 45.61847 8.96172 8986 ft 252 kts 27°
2026-05-05 21:27 45.63500 8.96733 8985 ft 247 kts 353°
2026-05-05 21:27 45.65136 8.96016 9011 ft 244 kts 330°
2026-05-05 21:27 45.66622 8.94833 9034 ft 245 kts 325°
2026-05-05 21:27 45.67762 8.93104 8981 ft 239 kts 289°
2026-05-05 21:28 45.67931 8.90815 9004 ft 233 kts 256°
2026-05-05 21:28 45.67310 8.88695 9039 ft 233 kts 234°
2026-05-05 21:28 45.66187 8.87077 9035 ft 235 kts 211°
2026-05-05 21:28 45.64642 8.86338 9018 ft 232 kts 184°
2026-05-05 21:29 45.63046 8.86538 9025 ft 231 kts 172°
2026-05-05 21:29 45.61460 8.86999 8874 ft 235 kts 170°
2026-05-05 21:29 45.59847 8.87506 8598 ft 238 kts 169°
2026-05-05 21:29 45.58221 8.88022 8426 ft 241 kts 169°
2026-05-05 21:30 45.56596 8.88533 8220 ft 242 kts 169°
2026-05-05 21:30 45.54954 8.89044 8019 ft 242 kts 169°
2026-05-05 21:30 45.53308 8.89551 7818 ft 241 kts 169°
2026-05-05 21:30 45.51667 8.90052 7620 ft 241 kts 169°
2026-05-05 21:31 45.50032 8.90549 7417 ft 240 kts 169°
2026-05-05 21:31 45.48402 8.91042 7215 ft 239 kts 169°
2026-05-05 21:31 45.46792 8.91530 7028 ft 232 kts 169°
2026-05-05 21:31 45.45251 8.91994 6839 ft 221 kts 169°
2026-05-05 21:32 45.43780 8.92436 6659 ft 213 kts 169°
2026-05-05 21:32 45.42342 8.92867 6571 ft 209 kts 170°
2026-05-05 21:32 45.40912 8.93294 6492 ft 212 kts 170°
2026-05-05 21:32 45.39449 8.93729 6354 ft 217 kts 169°
2026-05-05 21:33 45.37971 8.94155 6189 ft 216 kts 171°
2026-05-05 21:33 45.36519 8.94549 6082 ft 208 kts 171°
2026-05-05 21:33 45.35116 8.94927 6014 ft 204 kts 172°
2026-05-05 21:33 45.33713 8.95305 6009 ft 206 kts 172°
2026-05-05 21:34 45.32291 8.95687 6006 ft 210 kts 171°
2026-05-05 21:34 45.30856 8.96073 6000 ft 210 kts 171°
2026-05-05 21:34 45.29420 8.96465 5994 ft 210 kts 171°
2026-05-05 21:34 45.27985 8.96855 5980 ft 210 kts 171°
2026-05-05 21:35 45.26554 8.97243 5975 ft 209 kts 171°
2026-05-05 21:35 45.25125 8.97631 5975 ft 209 kts 171°
2026-05-05 21:35 45.23703 8.98002 5977 ft 206 kts 176°
2026-05-05 21:35 45.22331 8.97672 5975 ft 202 kts 211°
2026-05-05 21:36 45.21376 8.96223 5913 ft 209 kts 243°
2026-05-05 21:36 45.20873 8.94256 5744 ft 211 kts 244°
2026-05-05 21:36 45.19872 8.92733 5887 ft 222 kts 205°
2026-05-05 21:36 45.18334 8.92517 5948 ft 230 kts 166°
2026-05-05 21:37 45.17017 8.93799 5973 ft 238 kts 128°
2026-05-05 21:37 45.16231 8.95876 5993 ft 241 kts 121°
2026-05-05 21:37 45.15366 8.97929 5988 ft 245 kts 127°
2026-05-05 21:37 45.14375 8.99857 5971 ft 237 kts 135°
2026-05-05 21:38 45.13049 9.01025 5976 ft 220 kts 171°
2026-05-05 21:38 45.11543 9.01168 5980 ft 222 kts 191°
2026-05-05 21:38 45.10165 9.00212 5978 ft 220 kts 224°
2026-05-05 21:38 45.09423 8.98352 5919 ft 220 kts 255°
2026-05-05 21:39 45.09206 8.96213 5722 ft 218 kts 262°
2026-05-05 21:39 45.09084 8.94102 5510 ft 213 kts 263°
2026-05-05 21:39 45.08977 8.92031 5296 ft 210 kts 263°
2026-05-05 21:39 45.08875 8.89971 5088 ft 209 kts 263°
2026-05-05 21:40 45.09040 8.87946 4827 ft 220 kts 294°
2026-05-05 21:40 45.10182 8.86443 4673 ft 232 kts 338°
2026-05-05 21:40 45.11753 8.85996 4622 ft 236 kts 351°
2026-05-05 21:40 45.13389 8.85642 4534 ft 237 kts 351°
2026-05-05 21:41 45.15009 8.85280 4421 ft 233 kts 351°
2026-05-05 21:41 45.16597 8.84925 4363 ft 229 kts 351°
2026-05-05 21:41 45.18172 8.84570 4304 ft 230 kts 351°
2026-05-05 21:41 45.19759 8.84211 4245 ft 231 kts 351°
2026-05-05 21:42 45.21347 8.83850 4181 ft 232 kts 351°
2026-05-05 21:42 45.22947 8.83485 4109 ft 233 kts 351°
2026-05-05 21:42 45.24523 8.83123 4042 ft 223 kts 351°
2026-05-05 21:42 45.26002 8.82782 3961 ft 207 kts 351°
2026-05-05 21:43 45.27385 8.82463 3900 ft 199 kts 351°
2026-05-05 21:43 45.28755 8.82148 3879 ft 199 kts 351°
2026-05-05 21:43 45.30106 8.81835 3805 ft 192 kts 351°
2026-05-05 21:43 45.31397 8.81536 3786 ft 186 kts 351°
2026-05-05 21:44 45.32686 8.81236 3729 ft 188 kts 351°
2026-05-05 21:44 45.33965 8.80938 3666 ft 185 kts 351°
2026-05-05 21:44 45.35230 8.80643 3607 ft 183 kts 351°
2026-05-05 21:44 45.36475 8.80353 3552 ft 181 kts 351°
2026-05-05 21:45 45.37731 8.80061 3525 ft 184 kts 351°
2026-05-05 21:45 45.38983 8.79769 3495 ft 187 kts 351°
2026-05-05 21:45 45.40266 8.79471 3425 ft 185 kts 352°
2026-05-05 21:45 45.41528 8.79178 3343 ft 183 kts 352°
2026-05-05 21:46 45.42784 8.78888 3304 ft 183 kts 352°
2026-05-05 21:46 45.44044 8.78576 3246 ft 184 kts 351°
2026-05-05 21:46 45.45302 8.78235 3190 ft 185 kts 350°
2026-05-05 21:46 45.46564 8.77888 3140 ft 184 kts 350°
2026-05-05 21:47 45.47818 8.77543 3091 ft 183 kts 351°
2026-05-05 21:47 45.49076 8.77197 3031 ft 184 kts 350°
2026-05-05 21:47 45.50339 8.76850 2879 ft 187 kts 351°
2026-05-05 21:47 45.51604 8.76501 2647 ft 183 kts 351°
2026-05-05 21:48 45.52830 8.76163 2407 ft 176 kts 351°
2026-05-05 21:48 45.54008 8.75839 2167 ft 167 kts 351°
2026-05-05 21:48 45.55107 8.75537 2080 ft 161 kts 351°
2026-05-05 21:48 45.56237 8.75219 1847 ft 167 kts 350°
2026-05-05 21:49 45.57356 8.74909 1605 ft 161 kts 350°
2026-05-05 21:49 45.58416 8.74618 1372 ft 147 kts 350°
2026-05-05 21:49 45.59386 8.74351 1180 ft 139 kts 349°
2026-05-05 21:49 45.60334 8.74104 1034 ft 138 kts 349°
2026-05-05 21:50 45.61287 8.73829 881 ft 142 kts 350°
2026-05-05 21:50 45.62258 8.73563 768 ft 141 kts 349°
2026-05-05 21:50 45.63135 8.73318 744 ft 109 kts 348°
2026-05-05 21:50 45.63647 8.73148 747 ft 50 kts 335°
2026-05-05 21:51 45.63797 8.72948 751 ft 14 kts 306°
2026-05-05 21:51 45.63801 8.72942 752 ft 1 kts 307°
2026-05-05 21:51 45.63848 8.72849 752 ft 17 kts 306°
2026-05-05 21:51 45.63940 8.72766 752 ft 14 kts 297°
2026-05-05 21:52 45.63947 8.72493 753 ft 12 kts 261°
2026-05-05 21:52 45.63935 8.72400 755 ft 3 kts 259°
2026-05-05 21:52 45.63934 8.72397 752 ft 0 kts 259°
2026-05-05 21:53 45.63946 8.72360 752 ft 13 kts 314°
2026-05-05 21:54 45.64034 8.72324 752 ft 13 kts 347°
2026-05-05 21:54 45.64148 8.72292 753 ft 19 kts 349°
2026-05-05 21:54 45.64274 8.72257 752 ft 19 kts 349°
2026-05-05 21:54 45.64360 8.72233 753 ft 19 kts 353°
2026-05-05 21:55 45.64437 8.72353 755 ft 19 kts 79°
2026-05-05 21:55 45.64461 8.72535 755 ft 18 kts 78°
2026-05-05 21:55 45.64531 8.72639 755 ft 15 kts
2026-05-05 21:55 45.64633 8.72616 755 ft 14 kts 350°
2026-05-05 21:56 45.64721 8.72594 752 ft 12 kts 350°
2026-05-05 21:56 45.64737 8.72573 751 ft 7 kts 294°
2026-05-05 21:56 45.64739 8.72540 752 ft 1 kts 264°
2026-05-05 21:56 45.64738 8.72518 753 ft 5 kts 263°
2026-05-05 21:57 45.64735 8.72490 754 ft 1 kts 261°
2026-05-05 21:57 45.64735 8.72486 754 ft 0 kts 261°